Terminal Aerodrome Forecast
Issued by NWS

Home | Current Version | Previous Version | Text Only | Print | Product List | Glossary On
Versions: 1 2 3 4 5 6 7 8 9 10 11 12
000
FTAK31 PAFA 201722
TAFASC
TAF
PASC 201722Z 2018/2118 09004KT P6SM OVC018
     FM201900 11006KT P6SM BCFG OVC015
     FM210200 10013KT 6SM BLSN BR OVC015
     FM211000 09016G22KT 1SM BLSN BR OVC015=

USA.gov is the U.S. government's official web portal to all federal, state and local government web resources and services.